User: anonymous   Login
Location: Castillon
(43.0896°N, 0.2156°E)
Time: 11:28:56
(UTC+00:00)
Language:

Geosat - Orbit

View from above orbital plane
View from above orbital plane
View from above satellite
View from above satellite

Ground track
Ground track

The orbit data is extracted from the following two-line orbital elements,

1 15595U 85021A   21259.76002078 -.00000053  00000-0  27164-4 0  9993
2 15595 108.0484  76.0159 0002191 253.6190 106.4710 14.38219722913268
Epoch (UTC): 16 September 2021 18:14:25
Eccentricity: 0.0002191
inclination: 108.0484°
perigee height: 763 km
apogee height: 766 km
right ascension of ascending node: 76.0159°
argument of perigee: 253.6190°
revolutions per day: 14.38219722
mean anomaly at epoch: 106.4710°
orbit number at epoch: 91326

The dashed part of the orbit path shows where the satellite is in the earth's shadow,  

DLR